Year,Month,Day,Hour,Minute,Value (Times are PST for temperature in C)
2014,07,19,00,00,18.80
2014,07,19,00,01,18.80
2014,07,19,00,02,18.80
2014,07,19,00,03,18.80
2014,07,19,00,04,18.80
2014,07,19,00,05,18.80
2014,07,19,00,06,18.80
2014,07,19,00,07,18.80
2014,07,19,00,08,18.80
2014,07,19,00,09,18.80
2014,07,19,00,10,18.80
2014,07,19,00,11,18.80
2014,07,19,00,12,18.80
2014,07,19,00,13,18.80
2014,07,19,00,14,18.80
2014,07,19,00,15,18.80
2014,07,19,00,16,18.80
2014,07,19,00,17,18.80
2014,07,19,00,18,18.80
2014,07,19,00,19,18.70
2014,07,19,00,20,18.70
2014,07,19,00,21,18.60
2014,07,19,00,22,18.60
2014,07,19,00,23,18.60
2014,07,19,00,24,18.60
2014,07,19,00,25,18.50
2014,07,19,00,26,18.50
2014,07,19,00,27,18.40
2014,07,19,00,28,18.40
2014,07,19,00,29,18.40
2014,07,19,00,30,18.40
2014,07,19,00,31,18.40
2014,07,19,00,32,18.40
2014,07,19,00,33,18.40
2014,07,19,00,34,18.40
2014,07,19,00,35,18.40
2014,07,19,00,36,18.40
2014,07,19,00,37,18.50
2014,07,19,00,38,18.40
2014,07,19,00,39,18.40
2014,07,19,00,40,18.40
2014,07,19,00,41,18.40
2014,07,19,00,42,18.40
2014,07,19,00,43,18.40
2014,07,19,00,44,18.40
2014,07,19,00,45,18.40
2014,07,19,00,46,18.40
2014,07,19,00,47,18.40
2014,07,19,00,48,18.40
2014,07,19,00,49,18.40
2014,07,19,00,50,18.40
2014,07,19,00,51,18.40
2014,07,19,00,52,18.40
2014,07,19,00,53,18.40
2014,07,19,00,54,18.40
2014,07,19,00,55,18.40
2014,07,19,00,56,18.40
2014,07,19,00,57,18.40
2014,07,19,00,58,18.30
2014,07,19,00,59,18.30
2014,07,19,01,00,18.30
2014,07,19,01,01,18.30
2014,07,19,01,02,18.30
2014,07,19,01,03,18.30
2014,07,19,01,04,18.30
2014,07,19,01,05,18.30
2014,07,19,01,06,18.30
2014,07,19,01,07,18.30
2014,07,19,01,08,18.30
2014,07,19,01,09,18.30
2014,07,19,01,10,18.20
2014,07,19,01,11,18.20
2014,07,19,01,12,18.20
2014,07,19,01,13,18.20
2014,07,19,01,14,18.20
2014,07,19,01,15,18.10
2014,07,19,01,16,18.10
2014,07,19,01,17,18.00
2014,07,19,01,18,18.00
2014,07,19,01,19,17.90
2014,07,19,01,20,17.90
2014,07,19,01,21,17.90
2014,07,19,01,22,17.80
2014,07,19,01,23,17.80
2014,07,19,01,24,17.80
2014,07,19,01,25,17.80
2014,07,19,01,26,17.80
2014,07,19,01,27,17.80
2014,07,19,01,28,17.80
2014,07,19,01,29,17.80
2014,07,19,01,30,17.90
2014,07,19,01,31,17.90
2014,07,19,01,32,18.00
2014,07,19,01,33,18.00
2014,07,19,01,34,18.00
2014,07,19,01,35,18.00
2014,07,19,01,36,17.90
2014,07,19,01,37,17.90
2014,07,19,01,38,17.80
2014,07,19,01,39,17.80
2014,07,19,01,40,17.80
2014,07,19,01,41,17.80
2014,07,19,01,42,17.80
2014,07,19,01,43,17.70
2014,07,19,01,44,17.70
2014,07,19,01,45,17.70
2014,07,19,01,46,17.70
2014,07,19,01,47,17.70
2014,07,19,01,48,17.80
2014,07,19,01,49,17.80
2014,07,19,01,50,17.80
2014,07,19,01,51,17.90
2014,07,19,01,52,17.90
2014,07,19,01,53,17.90
2014,07,19,01,54,17.90
2014,07,19,01,55,17.90
2014,07,19,01,56,17.90
2014,07,19,01,57,17.80
2014,07,19,01,58,17.80
2014,07,19,01,59,17.80
2014,07,19,02,00,17.80
2014,07,19,02,01,17.80
2014,07,19,02,02,17.80
2014,07,19,02,03,17.90
2014,07,19,02,04,17.90
2014,07,19,02,05,17.90
2014,07,19,02,06,17.90
2014,07,19,02,07,18.00
2014,07,19,02,08,18.00
2014,07,19,02,09,18.00
2014,07,19,02,10,18.00
2014,07,19,02,11,18.10
2014,07,19,02,12,18.10
2014,07,19,02,13,18.10
2014,07,19,02,14,18.10
2014,07,19,02,15,18.10
2014,07,19,02,16,18.10
2014,07,19,02,17,18.10
2014,07,19,02,18,18.10
2014,07,19,02,19,18.10
2014,07,19,02,20,18.10
2014,07,19,02,21,18.10
2014,07,19,02,22,18.10
2014,07,19,02,23,18.10
2014,07,19,02,24,18.10
2014,07,19,02,25,18.10
2014,07,19,02,26,18.10
2014,07,19,02,27,18.10
2014,07,19,02,28,18.10
2014,07,19,02,29,18.10
2014,07,19,02,30,18.10
2014,07,19,02,31,18.10
2014,07,19,02,32,18.10
2014,07,19,02,33,18.10
2014,07,19,02,34,18.10
2014,07,19,02,35,18.10
2014,07,19,02,36,18.10
2014,07,19,02,37,18.10
2014,07,19,02,38,18.10
2014,07,19,02,39,18.10
2014,07,19,02,40,18.10
2014,07,19,02,41,18.10
2014,07,19,02,42,18.10
2014,07,19,02,43,18.10
2014,07,19,02,44,18.10
2014,07,19,02,45,18.10
2014,07,19,02,46,18.10
2014,07,19,02,47,18.00
2014,07,19,02,48,18.00
2014,07,19,02,49,18.00
2014,07,19,02,50,18.00
2014,07,19,02,51,18.00
2014,07,19,02,52,18.00
2014,07,19,02,53,18.00
2014,07,19,02,54,18.00
2014,07,19,02,55,18.00
2014,07,19,02,56,17.90
2014,07,19,02,57,17.90
2014,07,19,02,58,17.90
2014,07,19,02,59,17.90
2014,07,19,03,00,17.90
2014,07,19,03,01,17.90
2014,07,19,03,02,17.90
2014,07,19,03,03,17.90
2014,07,19,03,04,17.90
2014,07,19,03,05,17.90
2014,07,19,03,06,17.90
2014,07,19,03,07,17.90
2014,07,19,03,08,17.90
2014,07,19,03,09,17.90
2014,07,19,03,10,17.90
2014,07,19,03,11,17.90
2014,07,19,03,12,17.90
2014,07,19,03,13,17.90
2014,07,19,03,14,18.00
2014,07,19,03,15,18.00
2014,07,19,03,16,18.10
2014,07,19,03,17,18.10
2014,07,19,03,18,18.10
2014,07,19,03,19,18.20
2014,07,19,03,20,18.20
2014,07,19,03,21,18.20
2014,07,19,03,22,18.20
2014,07,19,03,23,18.20
2014,07,19,03,24,18.20
2014,07,19,03,25,18.20
2014,07,19,03,26,18.20
2014,07,19,03,27,18.20
2014,07,19,03,28,18.20
2014,07,19,03,29,18.20
2014,07,19,03,30,18.20
2014,07,19,03,31,18.20
2014,07,19,03,32,18.20
2014,07,19,03,33,18.20
2014,07,19,03,34,18.20
2014,07,19,03,35,18.20
2014,07,19,03,36,18.20
2014,07,19,03,37,18.20
2014,07,19,03,38,18.20
2014,07,19,03,39,18.20
2014,07,19,03,40,18.10
2014,07,19,03,41,18.10
2014,07,19,03,42,18.10
2014,07,19,03,43,18.10
2014,07,19,03,44,18.10
2014,07,19,03,45,18.10
2014,07,19,03,46,18.10
2014,07,19,03,47,18.10
2014,07,19,03,48,18.10
2014,07,19,03,49,18.10
2014,07,19,03,50,18.10
2014,07,19,03,51,18.10
2014,07,19,03,52,18.10
2014,07,19,03,53,18.00
2014,07,19,03,54,18.00
2014,07,19,03,55,18.00
2014,07,19,03,56,18.00
2014,07,19,03,57,18.00
2014,07,19,03,58,18.00
2014,07,19,03,59,17.90
2014,07,19,04,00,17.90
2014,07,19,04,01,17.90
2014,07,19,04,02,17.90
2014,07,19,04,03,17.90
2014,07,19,04,04,17.90
2014,07,19,04,05,17.90
2014,07,19,04,06,17.80
2014,07,19,04,07,17.80
2014,07,19,04,08,17.80
2014,07,19,04,09,17.80
2014,07,19,04,10,17.80
2014,07,19,04,11,17.80
2014,07,19,04,12,17.80
2014,07,19,04,13,17.80
2014,07,19,04,14,17.80
2014,07,19,04,15,17.80
2014,07,19,04,16,17.80
2014,07,19,04,17,17.80
2014,07,19,04,18,17.80
2014,07,19,04,19,17.80
2014,07,19,04,20,17.80
2014,07,19,04,21,17.90
2014,07,19,04,22,17.90
2014,07,19,04,23,17.90
2014,07,19,04,24,17.90
2014,07,19,04,25,17.90
2014,07,19,04,26,17.90
2014,07,19,04,27,17.90
2014,07,19,04,28,17.90
2014,07,19,04,29,17.90
2014,07,19,04,30,17.80
2014,07,19,04,31,17.80
2014,07,19,04,32,17.80
2014,07,19,04,33,17.80
2014,07,19,04,34,17.80
2014,07,19,04,35,17.80
2014,07,19,04,36,17.80
2014,07,19,04,37,17.70
2014,07,19,04,38,17.70
2014,07,19,04,39,17.70
2014,07,19,04,40,17.70
2014,07,19,04,41,17.70
2014,07,19,04,42,17.70
2014,07,19,04,43,17.70
2014,07,19,04,44,17.70
2014,07,19,04,45,17.70
2014,07,19,04,46,17.70
2014,07,19,04,47,17.70
2014,07,19,04,48,17.70
2014,07,19,04,49,17.70
2014,07,19,04,50,17.70
2014,07,19,04,51,17.70
2014,07,19,04,52,17.70
2014,07,19,04,53,17.70
2014,07,19,04,54,17.70
2014,07,19,04,55,17.70
2014,07,19,04,56,17.70
2014,07,19,04,57,17.60
2014,07,19,04,58,17.60
2014,07,19,04,59,17.60
2014,07,19,05,00,17.60
2014,07,19,05,01,17.60
2014,07,19,05,02,17.60
2014,07,19,05,03,17.60
2014,07,19,05,04,17.60
2014,07,19,05,05,17.70
2014,07,19,05,06,17.70
2014,07,19,05,07,17.70
2014,07,19,05,08,17.70
2014,07,19,05,09,17.70
2014,07,19,05,10,17.70
2014,07,19,05,11,17.70
2014,07,19,05,12,17.70
2014,07,19,05,13,17.70
2014,07,19,05,14,17.70
2014,07,19,05,15,17.70
2014,07,19,05,16,17.70
2014,07,19,05,17,17.60
2014,07,19,05,18,17.60
2014,07,19,05,19,17.60
2014,07,19,05,20,17.60
2014,07,19,05,21,17.60
2014,07,19,05,22,17.60
2014,07,19,05,23,17.60
2014,07,19,05,24,17.60
2014,07,19,05,25,17.60
2014,07,19,05,26,17.60
2014,07,19,05,27,17.60
2014,07,19,05,28,17.60
2014,07,19,05,29,17.60
2014,07,19,05,30,17.60
2014,07,19,05,31,17.60
2014,07,19,05,32,17.60
2014,07,19,05,33,17.50
2014,07,19,05,34,17.50
2014,07,19,05,35,17.60
2014,07,19,05,36,17.50
2014,07,19,05,37,17.50
2014,07,19,05,38,17.50
2014,07,19,05,39,17.50
2014,07,19,05,40,17.40
2014,07,19,05,41,17.40
2014,07,19,05,42,17.40
2014,07,19,05,43,17.40
2014,07,19,05,44,17.40
2014,07,19,05,45,17.30
2014,07,19,05,46,17.30
2014,07,19,05,47,17.30
2014,07,19,05,48,17.30
2014,07,19,05,49,17.30
2014,07,19,05,50,17.30
2014,07,19,05,51,17.30
2014,07,19,05,52,17.30
2014,07,19,05,53,17.30
2014,07,19,05,54,17.30
2014,07,19,05,55,17.30
2014,07,19,05,56,17.30
2014,07,19,05,57,17.30
2014,07,19,05,58,17.30
2014,07,19,05,59,17.30
2014,07,19,06,00,17.30
2014,07,19,06,01,17.30
2014,07,19,06,02,17.30
2014,07,19,06,03,17.30
2014,07,19,06,04,17.30
2014,07,19,06,05,17.30
2014,07,19,06,06,17.30
2014,07,19,06,07,17.30
2014,07,19,06,08,17.30
2014,07,19,06,09,17.30
2014,07,19,06,10,17.30
2014,07,19,06,11,17.30
2014,07,19,06,12,17.30
2014,07,19,06,13,17.30
2014,07,19,06,14,17.30
2014,07,19,06,15,17.30
2014,07,19,06,16,17.30
2014,07,19,06,17,17.30
2014,07,19,06,18,17.20
2014,07,19,06,19,17.20
2014,07,19,06,20,17.20
2014,07,19,06,21,17.20
2014,07,19,06,22,17.20
2014,07,19,06,23,17.20
2014,07,19,06,24,17.20
2014,07,19,06,25,17.20
2014,07,19,06,26,17.20
2014,07,19,06,27,17.20
2014,07,19,06,28,17.20
2014,07,19,06,29,17.20
2014,07,19,06,30,17.20
2014,07,19,06,31,17.20
2014,07,19,06,32,17.10
2014,07,19,06,33,17.10
2014,07,19,06,34,17.10
2014,07,19,06,35,17.10
2014,07,19,06,36,17.10
2014,07,19,06,37,17.20
2014,07,19,06,38,17.20
2014,07,19,06,39,17.20
2014,07,19,06,40,17.20
2014,07,19,06,41,17.20
2014,07,19,06,42,17.20
2014,07,19,06,43,17.20
2014,07,19,06,44,17.20
2014,07,19,06,45,17.20
2014,07,19,06,46,17.20
2014,07,19,06,47,17.20
2014,07,19,06,48,17.20
2014,07,19,06,49,17.20
2014,07,19,06,50,17.20
2014,07,19,06,51,17.20
2014,07,19,06,52,17.20
2014,07,19,06,53,17.20
2014,07,19,06,54,17.20
2014,07,19,06,55,17.20
2014,07,19,06,56,17.20
2014,07,19,06,57,17.20
2014,07,19,06,58,17.20
2014,07,19,06,59,17.20
2014,07,19,07,00,17.20
2014,07,19,07,01,17.20
2014,07,19,07,02,17.20
2014,07,19,07,03,17.20
2014,07,19,07,04,17.20
2014,07,19,07,05,17.20
2014,07,19,07,06,17.10
2014,07,19,07,07,17.10
2014,07,19,07,08,17.10
2014,07,19,07,09,17.10
2014,07,19,07,10,17.10
2014,07,19,07,11,17.10
2014,07,19,07,12,17.00
2014,07,19,07,13,17.00
2014,07,19,07,14,16.90
2014,07,19,07,15,16.90
2014,07,19,07,16,16.90
2014,07,19,07,17,16.90
2014,07,19,07,18,16.80
2014,07,19,07,19,16.80
2014,07,19,07,20,16.80
2014,07,19,07,21,16.80
2014,07,19,07,22,16.80
2014,07,19,07,23,16.70
2014,07,19,07,24,16.70
2014,07,19,07,25,16.70
2014,07,19,07,26,16.70
2014,07,19,07,27,16.70
2014,07,19,07,28,16.70
2014,07,19,07,29,16.70
2014,07,19,07,30,16.70
2014,07,19,07,31,16.70
2014,07,19,07,32,16.70
2014,07,19,07,33,16.70
2014,07,19,07,34,16.70
2014,07,19,07,35,16.70
2014,07,19,07,36,16.60
2014,07,19,07,37,16.60
2014,07,19,07,38,16.60
2014,07,19,07,39,16.60
2014,07,19,07,40,16.60
2014,07,19,07,41,16.60
2014,07,19,07,42,16.60
2014,07,19,07,43,16.60
2014,07,19,07,44,16.60
2014,07,19,07,45,16.60
2014,07,19,07,46,16.60
2014,07,19,07,47,16.70
2014,07,19,07,48,16.70
2014,07,19,07,49,16.70
2014,07,19,07,50,16.70
2014,07,19,07,51,16.70
2014,07,19,07,52,16.70
2014,07,19,07,53,16.70
2014,07,19,07,54,16.70
2014,07,19,07,55,16.70
2014,07,19,07,56,16.70
2014,07,19,07,57,16.70
2014,07,19,07,58,16.70
2014,07,19,07,59,16.70
2014,07,19,08,00,16.70
2014,07,19,08,01,16.70
2014,07,19,08,02,16.70
2014,07,19,08,03,16.70
2014,07,19,08,04,16.70
2014,07,19,08,05,16.70
2014,07,19,08,06,16.70
2014,07,19,08,07,16.80
2014,07,19,08,08,16.80
2014,07,19,08,09,16.80
2014,07,19,08,10,16.80
2014,07,19,08,11,16.80
2014,07,19,08,12,16.80
2014,07,19,08,13,16.80
2014,07,19,08,14,16.80
2014,07,19,08,15,16.80
2014,07,19,08,16,16.80
2014,07,19,08,17,16.80
2014,07,19,08,18,16.80
2014,07,19,08,19,16.80
2014,07,19,08,20,16.80
2014,07,19,08,21,16.80
2014,07,19,08,22,16.80
2014,07,19,08,23,16.80
2014,07,19,08,24,16.80
2014,07,19,08,25,16.80
2014,07,19,08,26,16.80
2014,07,19,08,27,16.80
2014,07,19,08,28,16.80
2014,07,19,08,29,16.80
2014,07,19,08,30,16.80
2014,07,19,08,31,16.80
2014,07,19,08,32,16.80
2014,07,19,08,33,16.80
2014,07,19,08,34,16.80
2014,07,19,08,35,16.80
2014,07,19,08,36,16.80
2014,07,19,08,37,16.80
2014,07,19,08,38,16.80
2014,07,19,08,39,16.80
2014,07,19,08,40,16.80
2014,07,19,08,41,16.80
2014,07,19,08,42,16.80
2014,07,19,08,43,16.90
2014,07,19,08,44,16.90
2014,07,19,08,45,16.90
2014,07,19,08,46,16.90
2014,07,19,08,47,16.90
2014,07,19,08,48,16.90
2014,07,19,08,49,16.90
2014,07,19,08,50,16.90
2014,07,19,08,51,16.90
2014,07,19,08,52,16.90
2014,07,19,08,53,16.90
2014,07,19,08,54,16.90
2014,07,19,08,55,16.90
2014,07,19,08,56,16.90
2014,07,19,08,57,17.00
2014,07,19,08,58,17.00
2014,07,19,08,59,17.00
2014,07,19,09,00,17.00
2014,07,19,09,01,17.10
2014,07,19,09,02,17.10
2014,07,19,09,03,17.10
2014,07,19,09,04,17.10
2014,07,19,09,05,17.10
2014,07,19,09,06,17.10
2014,07,19,09,07,17.10
2014,07,19,09,08,17.10
2014,07,19,09,09,17.20
2014,07,19,09,10,17.20
2014,07,19,09,11,17.20
2014,07,19,09,12,17.20
2014,07,19,09,13,17.20
2014,07,19,09,14,17.20
2014,07,19,09,15,17.20
2014,07,19,09,16,17.20
2014,07,19,09,17,17.30
2014,07,19,09,18,17.30
2014,07,19,09,19,17.30
2014,07,19,09,20,17.30
2014,07,19,09,21,17.30
2014,07,19,09,22,17.30
2014,07,19,09,23,17.30
2014,07,19,09,24,17.40
2014,07,19,09,25,17.40
2014,07,19,09,26,17.40
2014,07,19,09,27,17.40
2014,07,19,09,28,17.40
2014,07,19,09,29,17.50
2014,07,19,09,30,17.50
2014,07,19,09,31,17.50
2014,07,19,09,32,17.60
2014,07,19,09,33,17.60
2014,07,19,09,34,17.60
2014,07,19,09,35,17.60
2014,07,19,09,36,17.60
2014,07,19,09,37,17.70
2014,07,19,09,38,17.70
2014,07,19,09,39,17.70
2014,07,19,09,40,17.70
2014,07,19,09,41,17.70
2014,07,19,09,42,17.70
2014,07,19,09,43,17.70
2014,07,19,09,44,17.70
2014,07,19,09,45,17.70
2014,07,19,09,46,17.70
2014,07,19,09,47,17.70
2014,07,19,09,48,17.70
2014,07,19,09,49,17.80
2014,07,19,09,50,17.80
2014,07,19,09,51,17.80
2014,07,19,09,52,17.80
2014,07,19,09,53,17.80
2014,07,19,09,54,17.80
2014,07,19,09,55,17.80
2014,07,19,09,56,17.80
2014,07,19,09,57,17.80
2014,07,19,09,58,17.80
2014,07,19,09,59,17.80
2014,07,19,10,00,17.80
2014,07,19,10,01,17.80
2014,07,19,10,02,17.80
2014,07,19,10,03,17.80
2014,07,19,10,04,17.80
2014,07,19,10,05,17.80
2014,07,19,10,06,17.80
2014,07,19,10,07,17.80
2014,07,19,10,08,17.80
2014,07,19,10,09,17.80
2014,07,19,10,10,17.80
2014,07,19,10,11,17.80
2014,07,19,10,12,17.80
2014,07,19,10,13,17.90
2014,07,19,10,14,17.90
2014,07,19,10,15,17.90
2014,07,19,10,16,17.90
2014,07,19,10,17,17.90
2014,07,19,10,18,18.00
2014,07,19,10,19,18.00
2014,07,19,10,20,18.00
2014,07,19,10,21,18.10
2014,07,19,10,22,18.10
2014,07,19,10,23,18.10
2014,07,19,10,24,18.10
2014,07,19,10,25,18.10
2014,07,19,10,26,18.10
2014,07,19,10,27,18.10
2014,07,19,10,28,18.10
2014,07,19,10,29,18.10
2014,07,19,10,30,18.10
2014,07,19,10,31,18.10
2014,07,19,10,32,18.10
2014,07,19,10,33,18.10
2014,07,19,10,34,18.10
2014,07,19,10,35,18.10
2014,07,19,10,36,18.10
2014,07,19,10,37,18.10
2014,07,19,10,38,18.10
2014,07,19,10,39,18.10
2014,07,19,10,40,18.10
2014,07,19,10,41,18.10
2014,07,19,10,42,18.10
2014,07,19,10,43,18.10
2014,07,19,10,44,18.20
2014,07,19,10,45,18.20
2014,07,19,10,46,18.20
2014,07,19,10,47,18.20
2014,07,19,10,48,18.20
2014,07,19,10,49,18.20
2014,07,19,10,50,18.20
2014,07,19,10,51,18.20
2014,07,19,10,52,18.20
2014,07,19,10,53,18.20
2014,07,19,10,54,18.20
2014,07,19,10,55,18.20
2014,07,19,10,56,18.20
2014,07,19,10,57,18.30
2014,07,19,10,58,18.30
2014,07,19,10,59,18.30
2014,07,19,11,00,18.30
2014,07,19,11,01,18.30
2014,07,19,11,02,18.30
2014,07,19,11,03,18.30
2014,07,19,11,04,18.40
2014,07,19,11,05,18.40
2014,07,19,11,06,18.40
2014,07,19,11,07,18.40
2014,07,19,11,08,18.40
2014,07,19,11,09,18.40
2014,07,19,11,10,18.40
2014,07,19,11,11,18.40
2014,07,19,11,12,18.40
2014,07,19,11,13,18.50
2014,07,19,11,14,18.50
2014,07,19,11,15,18.50
2014,07,19,11,16,18.60
2014,07,19,11,17,18.60
2014,07,19,11,18,18.60
2014,07,19,11,19,18.60
2014,07,19,11,20,18.60
2014,07,19,11,21,18.70
2014,07,19,11,22,18.70
2014,07,19,11,23,18.70
2014,07,19,11,24,18.70
2014,07,19,11,25,18.80
2014,07,19,11,26,18.80
2014,07,19,11,27,18.80
2014,07,19,11,28,18.80
2014,07,19,11,29,18.90
2014,07,19,11,30,18.90
2014,07,19,11,31,18.90
2014,07,19,11,32,18.90
2014,07,19,11,33,18.90
2014,07,19,11,34,18.90
2014,07,19,11,35,19.00
2014,07,19,11,36,19.00
2014,07,19,11,37,19.10
2014,07,19,11,38,19.10
2014,07,19,11,39,19.10
2014,07,19,11,40,19.10
2014,07,19,11,41,19.10
2014,07,19,11,42,19.20
2014,07,19,11,43,19.20
2014,07,19,11,44,19.30
2014,07,19,11,45,19.40
2014,07,19,11,46,19.40
2014,07,19,11,47,19.50
2014,07,19,11,48,19.60
2014,07,19,11,49,19.70
2014,07,19,11,50,19.70
2014,07,19,11,51,19.80
2014,07,19,11,52,19.80
2014,07,19,11,53,19.80
2014,07,19,11,54,19.80
2014,07,19,11,55,19.90
2014,07,19,11,56,19.90
2014,07,19,11,57,19.90
2014,07,19,11,58,20.00
2014,07,19,11,59,20.00
2014,07,19,12,00,20.00
2014,07,19,12,01,20.10
2014,07,19,12,02,20.10
2014,07,19,12,03,20.20
2014,07,19,12,04,20.20
2014,07,19,12,05,20.30
2014,07,19,12,06,20.30
2014,07,19,12,07,20.40
2014,07,19,12,08,20.40
2014,07,19,12,09,20.50
2014,07,19,12,10,20.50
2014,07,19,12,11,20.60
2014,07,19,12,12,20.60
2014,07,19,12,13,20.60
2014,07,19,12,14,20.70
2014,07,19,12,15,20.70
2014,07,19,12,16,20.70
2014,07,19,12,17,20.70
2014,07,19,12,18,20.70
2014,07,19,12,19,20.70
2014,07,19,12,20,20.70
2014,07,19,12,21,20.70
2014,07,19,12,22,20.70
2014,07,19,12,23,20.60
2014,07,19,12,24,20.60
2014,07,19,12,25,20.60
2014,07,19,12,26,20.60
2014,07,19,12,27,20.60
2014,07,19,12,28,20.60
2014,07,19,12,29,20.70
2014,07,19,12,30,20.70
2014,07,19,12,31,20.70
2014,07,19,12,32,20.70
2014,07,19,12,33,20.70
2014,07,19,12,34,20.70
2014,07,19,12,35,20.70
2014,07,19,12,36,20.70
2014,07,19,12,37,20.70
2014,07,19,12,38,20.70
2014,07,19,12,39,20.70
2014,07,19,12,40,20.70
2014,07,19,12,41,20.70
2014,07,19,12,42,20.80
2014,07,19,12,43,20.80
2014,07,19,12,44,20.90
2014,07,19,12,45,21.00
2014,07,19,12,46,21.00
2014,07,19,12,47,21.00
2014,07,19,12,48,21.00
2014,07,19,12,49,21.00
2014,07,19,12,50,21.10
2014,07,19,12,51,21.10
2014,07,19,12,52,21.20
2014,07,19,12,53,21.20
2014,07,19,12,54,21.30
2014,07,19,12,55,21.30
2014,07,19,12,56,21.30
2014,07,19,12,57,21.40
2014,07,19,12,58,21.60
2014,07,19,12,59,21.70
2014,07,19,13,00,21.80
2014,07,19,13,01,21.90
2014,07,19,13,02,22.00
2014,07,19,13,03,22.10
2014,07,19,13,04,22.20
2014,07,19,13,05,22.20
2014,07,19,13,06,22.30
2014,07,19,13,07,22.30
2014,07,19,13,08,22.30
2014,07,19,13,09,22.30
2014,07,19,13,10,22.30
2014,07,19,13,11,22.30
2014,07,19,13,12,22.40
2014,07,19,13,13,22.40
2014,07,19,13,14,22.40
2014,07,19,13,15,22.40
2014,07,19,13,16,22.50
2014,07,19,13,17,22.60
2014,07,19,13,18,22.50
2014,07,19,13,19,22.60
2014,07,19,13,20,22.50
2014,07,19,13,21,22.50
2014,07,19,13,22,22.50
2014,07,19,13,23,22.40
2014,07,19,13,24,22.30
2014,07,19,13,25,22.20
2014,07,19,13,26,22.20
2014,07,19,13,27,22.30
2014,07,19,13,28,22.30
2014,07,19,13,29,22.30
2014,07,19,13,30,22.30
2014,07,19,13,31,22.30
2014,07,19,13,32,22.30
2014,07,19,13,33,22.30
2014,07,19,13,34,22.30
2014,07,19,13,35,22.30
2014,07,19,13,36,22.30
2014,07,19,13,37,22.40
2014,07,19,13,38,22.40
2014,07,19,13,39,22.50
2014,07,19,13,40,22.50
2014,07,19,13,41,22.50
2014,07,19,13,42,22.50
2014,07,19,13,43,22.50
2014,07,19,13,44,22.50
2014,07,19,13,45,22.50
2014,07,19,13,46,22.40
2014,07,19,13,47,22.50
2014,07,19,13,48,22.50
2014,07,19,13,49,22.60
2014,07,19,13,50,22.60
2014,07,19,13,51,22.70
2014,07,19,13,52,22.70
2014,07,19,13,53,22.70
2014,07,19,13,54,22.70
2014,07,19,13,55,22.70
2014,07,19,13,56,22.70
2014,07,19,13,57,22.80
2014,07,19,13,58,22.80
2014,07,19,13,59,22.80
2014,07,19,14,00,22.90
2014,07,19,14,01,22.90
2014,07,19,14,02,22.90
2014,07,19,14,03,22.90
2014,07,19,14,04,22.90
2014,07,19,14,05,23.00
2014,07,19,14,06,23.00
2014,07,19,14,07,22.90
2014,07,19,14,08,22.80
2014,07,19,14,09,22.90
2014,07,19,14,10,22.90
2014,07,19,14,11,23.00
2014,07,19,14,12,23.00
2014,07,19,14,13,23.10
2014,07,19,14,14,23.00
2014,07,19,14,15,23.00
2014,07,19,14,16,22.90
2014,07,19,14,17,22.90
2014,07,19,14,18,22.80
2014,07,19,14,19,22.80
2014,07,19,14,20,22.80
2014,07,19,14,21,22.80
2014,07,19,14,22,22.80
2014,07,19,14,23,22.90
2014,07,19,14,24,22.90
2014,07,19,14,25,23.10
2014,07,19,14,26,23.20
2014,07,19,14,27,23.30
2014,07,19,14,28,23.40
2014,07,19,14,29,23.40
2014,07,19,14,30,23.50
2014,07,19,14,31,23.50
2014,07,19,14,32,23.50
2014,07,19,14,33,23.50
2014,07,19,14,34,23.40
2014,07,19,14,35,23.50
2014,07,19,14,36,23.50
2014,07,19,14,37,23.60
2014,07,19,14,38,23.60
2014,07,19,14,39,23.60
2014,07,19,14,40,23.60
2014,07,19,14,41,23.60
2014,07,19,14,42,23.50
2014,07,19,14,43,23.60
2014,07,19,14,44,23.60
2014,07,19,14,45,23.60
2014,07,19,14,46,23.60
2014,07,19,14,47,23.60
2014,07,19,14,48,23.70
2014,07,19,14,49,23.70
2014,07,19,14,50,23.70
2014,07,19,14,51,23.70
2014,07,19,14,52,23.70
2014,07,19,14,53,23.70
2014,07,19,14,54,23.70
2014,07,19,14,55,23.70
2014,07,19,14,56,23.70
2014,07,19,14,57,23.60
2014,07,19,14,58,23.60
2014,07,19,14,59,23.70
2014,07,19,15,00,23.80
2014,07,19,15,01,23.80
2014,07,19,15,02,23.90
2014,07,19,15,03,23.90
2014,07,19,15,04,23.90
2014,07,19,15,05,23.90
2014,07,19,15,06,23.80
2014,07,19,15,07,23.60
2014,07,19,15,08,23.50
2014,07,19,15,09,23.40
2014,07,19,15,10,23.40
2014,07,19,15,11,23.50
2014,07,19,15,12,23.50
2014,07,19,15,13,23.60
2014,07,19,15,14,23.60
2014,07,19,15,15,23.70
2014,07,19,15,16,23.70
2014,07,19,15,17,23.80
2014,07,19,15,18,23.80
2014,07,19,15,19,23.80
2014,07,19,15,20,23.80
2014,07,19,15,21,23.80
2014,07,19,15,22,23.60
2014,07,19,15,23,23.40
2014,07,19,15,24,23.30
2014,07,19,15,25,23.30
2014,07,19,15,26,23.20
2014,07,19,15,27,23.10
2014,07,19,15,28,23.10
2014,07,19,15,29,23.10
2014,07,19,15,30,23.10
2014,07,19,15,31,23.10
2014,07,19,15,32,23.00
2014,07,19,15,33,23.00
2014,07,19,15,34,23.10
2014,07,19,15,35,23.10
2014,07,19,15,36,23.20
2014,07,19,15,37,23.30
2014,07,19,15,38,23.40
2014,07,19,15,39,23.50
2014,07,19,15,40,23.60
2014,07,19,15,41,23.70
2014,07,19,15,42,23.80
2014,07,19,15,43,23.80
2014,07,19,15,44,23.70
2014,07,19,15,45,23.60
2014,07,19,15,46,23.50
2014,07,19,15,47,23.50
2014,07,19,15,48,23.40
2014,07,19,15,49,23.40
2014,07,19,15,50,23.40
2014,07,19,15,51,23.40
2014,07,19,15,52,23.50
2014,07,19,15,53,23.40
2014,07,19,15,54,23.40
2014,07,19,15,55,23.30
2014,07,19,15,56,23.10
2014,07,19,15,57,23.00
2014,07,19,15,58,23.00
2014,07,19,15,59,22.80
2014,07,19,16,00,22.70
2014,07,19,16,01,22.70
2014,07,19,16,02,22.60
2014,07,19,16,03,22.50
2014,07,19,16,04,22.50
2014,07,19,16,05,22.50
2014,07,19,16,06,22.40
2014,07,19,16,07,22.50
2014,07,19,16,08,22.50
2014,07,19,16,09,22.50
2014,07,19,16,10,22.60
2014,07,19,16,11,22.60
2014,07,19,16,12,22.60
2014,07,19,16,13,22.60
2014,07,19,16,14,22.50
2014,07,19,16,15,22.40
2014,07,19,16,16,22.30
2014,07,19,16,17,22.20
2014,07,19,16,18,22.20
2014,07,19,16,19,22.10
2014,07,19,16,20,22.00
2014,07,19,16,21,21.90
2014,07,19,16,22,21.90
2014,07,19,16,23,21.90
2014,07,19,16,24,21.80
2014,07,19,16,25,21.80
2014,07,19,16,26,21.90
2014,07,19,16,27,21.90
2014,07,19,16,28,21.90
2014,07,19,16,29,22.00
2014,07,19,16,30,22.00
2014,07,19,16,31,22.00
2014,07,19,16,32,22.00
2014,07,19,16,33,22.00
2014,07,19,16,34,21.90
2014,07,19,16,35,21.90
2014,07,19,16,36,21.80
2014,07,19,16,37,21.80
2014,07,19,16,38,21.70
2014,07,19,16,39,21.60
2014,07,19,16,40,21.50
2014,07,19,16,41,21.50
2014,07,19,16,42,21.40
2014,07,19,16,43,21.50
2014,07,19,16,44,21.50
2014,07,19,16,45,21.50
2014,07,19,16,46,21.50
2014,07,19,16,47,21.50
2014,07,19,16,48,21.50
2014,07,19,16,49,21.50
2014,07,19,16,50,21.40
2014,07,19,16,51,21.40
2014,07,19,16,52,21.40
2014,07,19,16,53,21.30
2014,07,19,16,54,21.20
2014,07,19,16,55,21.20
2014,07,19,16,56,21.10
2014,07,19,16,57,21.10
2014,07,19,16,58,21.10
2014,07,19,16,59,21.10
2014,07,19,17,00,21.00
2014,07,19,17,01,21.00
2014,07,19,17,02,21.10
2014,07,19,17,03,21.10
2014,07,19,17,04,21.10
2014,07,19,17,05,21.10
2014,07,19,17,06,21.10
2014,07,19,17,07,21.10
2014,07,19,17,08,21.10
2014,07,19,17,09,21.10
2014,07,19,17,10,21.20
2014,07,19,17,11,21.20
2014,07,19,17,12,21.10
2014,07,19,17,13,21.10
2014,07,19,17,14,21.10
2014,07,19,17,15,21.00
2014,07,19,17,16,21.00
2014,07,19,17,17,21.00
2014,07,19,17,18,21.00
2014,07,19,17,19,20.90